Rolla, MO

9:53 PM CST on November 20, 2017 (GMT -0600)
Rolla National

Weather History for KVIH - September, 2012

Change the Weather History Date:

Thursday, September 13, 2012

  Actual Average Record
Temperature  
Mean Temperature 71 °F 69 °F  
Max Temperature 84 °F 80 °F 96 °F (1956)
Min Temperature 57 °F 58 °F 34 °F (1902)
Degree Days  
Heating Degree Days 0 1  
Month to date heating degree days 5 7  
Since 1 July heating degree days 6 10  
Cooling Degree Days 6 5  
Month to date cooling degree days 106 87  
Year to date cooling degree days 1647 1164  
Growing Degree Days 20 (Base 50)    
Moisture  
Dew Point 56 °F    
Average Humidity 63    
Maximum Humidity 86    
Minimum Humidity 40    
Precipitation  
Precipitation 0.00 in 0.15 in 2.20 in (1945)
Month to date precipitation 1.11 1.89  
Year to date precipitation 25.34 31.44  
Sea Level Pressure  
Sea Level Pressure 30.19 in    
Wind  
Wind Speed 8 mph (ENE)    
Max Wind Speed 20 mph    
Max Gust Speed 23 mph    
Visibility 10 miles    
Events      
T = Trace of Precipitation, MM = Missing Value Source: NWS Daily Summary

Daily Weather History Graph

Daily Weather History Graph

Search for Another Location

Airport or City:

Trip Planner

Search our weather history database for the weather conditions in past years. The results will help you decide how hot, cold, wet, or windy it might be!

Date:

Astronomy

Sep. 13, 2012 Rise Set
Actual Time 6:47 AM CDT 7:17 PM CDT
Civil Twilight 6:21 AM CDT 7:43 PM CDT
Nautical Twilight 5:49 AM CDT 8:14 PM CDT
Astronomical Twilight 5:17 AM CDT 8:46 PM CDT
Moon 4:09 AM CDT (9/13) 5:39 PM CDT (9/13)
Length of Visible Light 13h 22m
Length of Day
12h 29m
Waning Crescent, 7% of the Moon is Illuminated
Sep 13
Waning Crescent
Sep 15
New
Sep 22
First Quarter
Sep 29
Full
Oct 8
Last Quarter

Hourly Weather History & Observations

Time (CDT) Temp. Heat Index Dew Point Humidity Pressure Visibility Wind Dir Wind Speed Gust Speed Precip Events Conditions
12:53 AM 68.0 °F - 55.9 °F 65% 30.12 in 10.0 mi South 10.4 mph - N/A   Clear
1:53 AM 64.9 °F - 55.9 °F 73% 30.13 in 10.0 mi South 9.2 mph - N/A   Clear
2:53 AM 64.9 °F - 55.0 °F 70% 30.12 in 10.0 mi South 8.1 mph - N/A   Clear
3:53 AM 66.0 °F - 55.0 °F 68% 30.12 in 10.0 mi South 8.1 mph - N/A   Clear
4:53 AM 61.0 °F - 55.0 °F 81% 30.13 in 10.0 mi SE 6.9 mph - N/A   Clear
5:53 AM 62.1 °F - 55.9 °F 80% 30.14 in 10.0 mi SSE 9.2 mph - N/A   Clear
6:53 AM 62.1 °F - 55.9 °F 80% 30.16 in 10.0 mi SE 8.1 mph - N/A   Clear
7:53 AM 64.9 °F - 57.9 °F 78% 30.18 in 10.0 mi SSE 6.9 mph - N/A   Scattered Clouds
8:53 AM 68.0 °F - 60.1 °F 76% 30.19 in 10.0 mi SSE 8.1 mph - N/A   Partly Cloudy
9:53 AM 73.9 °F - 62.1 °F 66% 30.19 in 10.0 mi SSE 5.8 mph - N/A   Partly Cloudy
10:53 AM 78.1 °F - 59.0 °F 52% 30.19 in 10.0 mi South 5.8 mph - N/A   Partly Cloudy
11:53 AM 80.1 °F 80.7 °F 59.0 °F 48% 30.18 in 10.0 mi Calm Calm - N/A   Partly Cloudy
12:53 PM 82.0 °F 81.6 °F 55.9 °F 41% 30.17 in 10.0 mi Variable 3.5 mph - N/A   Scattered Clouds
1:53 PM 82.9 °F 82.8 °F 59.0 °F 44% 30.15 in 10.0 mi NNE 6.9 mph - N/A   Mostly Cloudy
2:53 PM 82.9 °F 82.6 °F 57.9 °F 42% 30.14 in 10.0 mi NW 5.8 mph - N/A   Overcast
3:53 PM 80.1 °F 81.7 °F 64.0 °F 58% 30.13 in 10.0 mi NNW 11.5 mph - N/A   Scattered Clouds
4:53 PM 75.9 °F - 62.1 °F 62% 30.14 in 10.0 mi NNW 15.0 mph 20.7 mph N/A   Clear
5:53 PM 68.0 °F - 57.9 °F 70% 30.18 in 10.0 mi NNW 17.3 mph - N/A   Mostly Cloudy
6:53 PM 63.0 °F - 54.0 °F 72% 30.21 in 10.0 mi North 11.5 mph - N/A   Clear
7:53 PM 61.0 °F - 53.1 °F 75% 30.22 in 10.0 mi NNE 9.2 mph - N/A   Overcast
8:53 PM 60.1 °F - 53.1 °F 78% 30.26 in 10.0 mi NNE 10.4 mph - N/A   Overcast
9:31 PM 59.0 °F - 53.6 °F 82% 30.29 in 10.0 mi North 11.5 mph - N/A   Overcast
9:53 PM 59.0 °F - 54.0 °F 83% 30.28 in 10.0 mi NNE 10.4 mph - N/A   Overcast
10:19 PM 57.2 °F - 53.6 °F 88% 30.30 in 10.0 mi North 11.5 mph - N/A   Mostly Cloudy
10:53 PM 57.9 °F - 53.1 °F 84% 30.28 in 10.0 mi NNE 11.5 mph - N/A   Mostly Cloudy
11:21 PM 57.2 °F - 53.6 °F 88% 30.29 in 10.0 mi NE 11.5 mph - N/A   Scattered Clouds
11:53 PM 57.0 °F - 53.1 °F 87% 30.28 in 10.0 mi NNE 5.8 mph - N/A   Mostly Cloudy